Location: City of Moscow
(46.7306°N, 116.9989°W)
Time: 04:30:40
(UTC+00:00)

Orbus 7S? - Pass Details

Date: 20 March 2026
Orbit: 354 x 6170 km, 56.9° (Epoch: 30 September)

Event Time Altitude Azimuth Distance (km) Brightness Sun altitude
Rises 10:12:57 0° 152° (SSE) 10,539 9.6 -34.5°
Reaches altitude 10° 10:23:48 10° 140° (SE) 9,673 9.5 -33.2°
Maximum altitude 10:47:09 23° 102° (ESE) 7,668 9.4 -30.2°
Drops below altitude 10° 11:03:58 10° 62° (ENE) 7,061 9.9 -27.8°
Sets 11:09:38 0° 50° (NE) 7,290 10.3 -27.0°
